Date,TemperatureHighF,TemperatureAvgF,TemperatureLowF,DewpointHighF,DewpointAvgF,DewpointLowF,HumidityHigh,HumidityAvg,HumidityLow,PressureMaxIn,PressureMinIn,WindSpeedMaxMPH,WindSpeedAvgMPH,GustSpeedMaxMPH,PrecipitationSumIn
2014-1-1,69.3,50.2,36.7,52.5,40.9,27.8,93,73,37,30.13,30.02,15,3,15,0.00
2014-1-2,81.2,60.4,43.8,44.0,35.7,28.2,85,43,16,30.09,29.97,16,5,16,0.00
2014-1-3,72.0,55.2,46.4,52.8,40.6,30.0,92,62,24,30.02,29.90,18,5,18,0.00
2014-1-4,65.8,50.0,40.9,52.9,44.1,36.9,95,82,44,30.03,29.92,14,3,14,0.00
2014-1-5,76.1,60.5,35.5,41.5,20.0,1.0,96,35,7,30.15,30.03,33,11,33,0.00
2014-1-8,58.0,51.6,46.8,53.2,49.2,45.4,95,92,82,30.07,30.00,14,2,14,0.00
2014-1-9,65.3,48.8,38.2,52.3,44.2,36.8,96,85,61,30.11,29.96,11,3,11,0.00
2014-1-10,69.5,52.9,40.3,53.6,44.0,35.9,92,74,41,30.12,30.00,14,3,14,0.00
2014-1-11,69.7,53.0,40.8,51.0,43.8,36.3,94,74,37,30.17,30.03,17,4,17,0.00
2014-1-12,73.8,56.6,39.5,46.4,36.8,21.0,93,56,15,30.16,30.03,37,8,37,0.00
2014-1-13,76.3,67.4,50.4,27.0,21.0,15.7,36,18,12,30.31,30.15,41,15,41,0.00
2014-1-14,82.8,64.5,40.3,37.4,21.2,9.9,62,26,7,30.33,30.20,35,8,35,0.00
2014-1-15,83.6,73.8,44.7,31.2,16.0,9.9,55,13,7,30.20,30.09,35,15,35,0.00
2014-1-16,83.8,70.5,43.3,31.4,13.3,4.4,62,15,5,30.12,30.02,19,10,28,0.00
2014-1-17,85.4,69.4,50.8,34.0,16.0,1.9,37,16,6,30.10,30.00,18,9,25,0.00
2014-1-18,84.6,60.1,43.9,37.5,24.6,6.0,62,30,5,30.08,29.97,13,6,17,0.00
2014-1-19,76.9,57.6,45.4,37.8,27.5,18.1,59,33,17,30.10,30.02,9,4,12,0.00
2014-1-20,78.9,55.3,42.3,45.2,30.5,21.2,72,42,16,30.17,30.05,11,5,13,0.00
2014-1-21,80.6,61.8,43.5,49.1,32.5,15.5,69,39,9,30.16,30.03,15,4,20,0.00
2014-1-22,78.9,60.0,44.5,49.4,35.3,23.8,81,44,17,30.05,29.86,11,4,14,0.00
2014-1-23,76.6,57.8,36.6,51.5,30.2,17.0,87,47,11,30.06,29.87,24,9,29,0.00
2014-1-24,72.7,66.9,57.3,52.8,29.4,18.8,78,30,15,30.19,30.06,22,14,28,0.00
2014-1-25,77.9,65.0,46.8,46.1,32.8,19.4,72,34,15,30.19,30.09,14,7,20,0.00
2014-1-26,64.3,53.8,45.4,53.1,41.7,30.4,89,66,33,30.13,30.02,8,4,10,0.01
2014-1-27,70.3,53.6,43.4,52.1,45.4,40.8,93,76,42,30.10,30.00,9,4,13,0.00
2014-1-28,69.9,53.0,38.9,54.7,45.3,34.5,91,76,51,30.13,30.02,11,3,14,0.00
2014-1-29,71.0,54.8,44.0,56.0,48.5,41.1,94,81,54,30.08,29.91,10,3,15,0.00
2014-1-30,59.5,54.8,47.6,55.7,52.1,45.7,97,91,81,29.96,29.85,7,3,11,0.00
2014-1-31,66.2,52.7,40.1,52.0,42.9,30.9,97,73,37,29.99,29.85,8,2,11,0.00
2014-2-1,65.6,47.1,32.6,34.7,29.9,25.0,83,56,23,30.08,29.98,8,4,10,0.00
2014-2-2,61.8,48.3,39.7,44.9,33.8,23.5,85,59,27,30.08,29.95,11,6,15,0.04
2014-2-3,63.5,49.2,38.5,45.6,39.7,33.3,91,72,44,29.99,29.87,9,4,14,0.00
2014-2-4,63.6,47.8,35.5,44.0,36.8,30.4,84,67,39,30.08,29.98,10,4,14,0.00
2014-2-5,63.4,48.5,36.1,44.0,37.7,33.0,91,69,37,30.13,30.01,10,4,12,0.00
2014-2-6,60.3,50.9,45.8,50.4,45.7,39.5,96,83,60,30.07,29.96,9,3,9,0.18
2014-2-7,62.1,53.6,47.5,52.9,49.8,46.7,98,88,65,30.22,30.03,9,3,11,0.00
2014-2-8,62.0,54.9,48.9,54.3,51.9,47.1,96,90,72,30.27,30.18,9,3,11,0.00
2014-2-9,67.0,57.9,52.1,55.5,52.3,49.8,95,82,60,30.22,30.08,9,3,12,0.00
2014-2-10,71.3,56.9,46.2,57.5,51.2,44.2,97,83,60,30.14,29.99,9,3,13,0.00
2014-2-11,74.6,57.7,45.8,51.1,44.8,41.4,88,66,34,30.09,30.00,11,3,15,0.00
2014-2-12,74.5,58.9,45.1,48.1,40.1,33.0,84,53,27,30.13,30.02,10,5,10,0.00
2014-2-13,75.7,58.8,46.1,54.3,41.8,32.0,86,57,25,30.07,29.95,16,4,16,0.00
2014-2-14,76.0,56.2,39.1,54.2,43.5,30.4,91,66,33,30.05,29.93,13,3,15,0.00
2014-2-15,74.2,54.7,43.0,53.6,41.4,30.7,89,63,26,30.03,29.93,16,4,16,0.00
2014-2-16,72.5,56.1,44.8,54.1,47.5,41.3,92,75,47,30.07,29.96,17,3,17,0.00
2014-2-17,67.8,52.7,39.0,53.4,46.4,37.0,96,81,56,30.07,29.97,17,3,17,0.00
2014-2-18,65.6,51.9,40.7,54.0,47.7,39.4,97,86,63,30.08,29.95,17,4,17,0.01
2014-2-19,67.6,53.7,40.9,53.7,47.3,39.6,97,81,58,30.01,29.88,17,4,17,0.00
2014-2-20,81.8,60.4,40.6,42.9,36.9,28.7,87,49,15,30.01,29.94,31,6,31,0.00
2014-2-21,78.0,60.0,47.8,49.8,38.7,27.8,81,48,20,29.98,29.85,18,6,18,0.00
2014-2-22,72.3,54.9,41.4,48.5,40.6,34.2,82,62,28,29.93,29.83,15,4,15,0.00
2014-2-23,70.4,54.5,38.7,52.5,43.9,34.1,91,70,40,29.99,29.90,17,4,17,0.00
2014-2-24,69.0,53.0,37.4,51.3,44.5,35.4,94,76,46,30.03,29.91,15,3,16,0.00
2014-2-25,69.0,56.8,47.9,53.1,50.0,46.2,94,79,54,30.04,29.94,16,5,16,0.00
2014-2-26,63.3,56.6,50.8,54.3,51.8,47.9,96,85,64,30.07,29.97,12,2,12,0.47
2014-2-27,69.3,58.7,52.2,58.9,53.3,46.7,98,84,46,30.00,29.81,18,3,18,0.73
2014-2-28,60.6,56.0,53.2,58.9,54.0,51.1,98,93,84,29.80,29.61,19,7,38,2.35
2014-3-1,60.9,55.4,52.5,54.9,53.0,51.1,96,92,78,29.95,29.72,13,4,21,0.71
2014-3-2,64.8,55.3,51.5,55.9,52.7,49.8,96,91,70,30.15,29.96,12,3,12,0.01
2014-3-3,68.3,56.5,48.7,55.2,51.4,47.7,98,84,58,30.16,30.00,16,3,16,0.01
2014-3-4,70.9,57.6,46.9,60.1,53.7,45.9,98,88,63,30.04,29.93,13,3,13,0.01
2014-3-5,68.9,58.8,51.5,59.8,55.5,50.7,98,89,71,30.10,29.99,17,3,17,0.00
2014-3-6,71.8,60.2,51.0,62.5,55.8,50.2,98,86,67,30.06,29.91,12,3,17,0.01
2014-3-7,77.1,60.0,45.2,51.9,46.1,36.3,97,66,27,30.01,29.90,23,3,23,0.00
2014-3-8,81.8,64.7,44.7,45.5,38.3,27.2,89,46,15,30.11,29.96,29,8,29,0.00
2014-3-9,85.3,66.5,49.6,44.2,34.5,20.8,80,35,10,30.14,30.05,29,7,29,0.00
2014-3-10,78.6,61.0,47.7,54.6,44.6,36.0,86,58,23,30.08,29.95,17,5,17,0.00
2014-3-11,77.6,59.6,45.4,53.7,43.5,23.8,91,61,19,29.99,29.89,29,6,29,0.00
2014-3-12,75.2,67.0,54.7,53.5,29.3,14.2,92,30,13,30.00,29.88,37,16,43,0.00
2014-3-13,69.4,59.9,47.2,54.8,49.8,44.1,92,71,47,30.01,29.89,11,4,17,0.00
2014-3-14,71.2,56.1,40.5,55.1,47.9,38.6,94,76,51,30.10,30.00,10,4,15,0.00
2014-3-15,80.3,61.4,44.3,55.4,48.5,37.5,96,67,26,30.21,30.09,11,4,15,0.01
2014-3-16,87.4,67.0,50.3,52.1,43.3,27.9,80,48,14,30.22,30.07,11,5,17,0.00
2014-3-17,76.3,59.6,44.4,54.3,47.1,38.7,90,66,39,30.07,29.75,11,4,16,0.00
2014-3-18,71.2,57.0,43.7,55.6,49.4,32.8,95,78,25,29.91,29.79,12,4,17,0.00
2014-3-19,78.2,58.0,41.6,57.2,43.2,16.0,93,64,10,30.03,29.91,14,4,21,0.00
2014-3-20,69.2,56.3,43.4,55.0,46.7,38.8,91,72,48,30.05,29.91,10,4,16,0.00
2014-3-21,68.1,57.2,49.9,52.0,50.4,46.8,95,79,53,30.02,29.93,9,3,13,0.00
2014-3-22,66.5,56.1,48.2,54.2,49.8,45.8,94,80,61,30.10,29.99,10,3,15,0.00
2014-3-23,66.2,55.4,44.4,54.8,49.8,42.4,96,82,62,30.13,30.01,10,4,14,0.00
2014-3-24,69.2,57.1,47.2,55.8,51.8,45.8,96,84,61,30.11,29.98,10,4,15,0.00
2014-3-25,62.9,58.0,54.3,55.0,53.0,50.6,93,84,72,30.03,29.88,9,3,13,0.00
2014-3-26,65.8,57.3,48.8,53.5,50.6,46.6,94,80,55,29.95,29.85,14,6,24,0.00
2014-3-27,69.5,55.0,41.8,51.8,46.6,40.0,96,76,42,30.08,29.95,9,4,14,0.01
2014-3-28,68.8,55.8,44.0,53.4,47.9,42.3,95,77,52,30.16,30.07,10,4,15,0.00
2014-3-29,73.3,57.8,46.1,55.6,50.4,43.9,93,78,49,30.13,29.95,11,5,16,0.00
2014-3-30,68.7,58.8,47.9,53.8,49.1,42.0,95,73,41,30.05,29.94,10,4,16,0.00
2014-3-31,64.6,53.7,41.1,52.7,45.2,38.1,93,75,51,30.02,29.94,11,5,19,0.10
2014-4-1,63.2,53.7,43.4,51.0,45.9,41.8,96,77,49,30.00,29.92,14,5,22,0.03
2014-4-2,62.0,51.5,41.0,47.4,43.9,39.6,96,77,50,30.07,29.94,13,4,24,0.01
2014-4-3,66.8,53.5,41.8,49.5,44.6,39.3,93,74,45,30.13,30.04,12,6,18,0.00
2014-4-4,65.3,54.5,44.9,51.0,46.8,43.0,94,77,48,30.06,29.92,11,4,17,0.00
2014-4-5,71.5,57.2,43.8,51.5,46.0,40.3,96,70,37,30.04,29.93,9,3,14,0.00
2014-4-6,81.4,63.4,44.5,51.2,42.5,29.6,81,52,16,30.10,29.98,11,4,14,0.00
2014-4-7,87.8,67.4,53.8,51.1,44.6,35.1,73,47,16,30.08,30.02,13,5,18,0.00
2014-4-8,86.6,67.5,50.5,54.9,45.3,37.7,90,51,19,30.10,29.99,12,6,15,0.00
2014-4-9,84.9,63.7,50.2,53.5,47.7,37.4,96,64,22,30.05,29.93,12,6,17,0.00
2014-4-10,76.1,59.1,45.3,52.5,46.0,36.1,96,66,34,29.99,29.89,11,5,13,0.00
2014-4-11,72.6,59.7,49.3,53.9,50.2,42.1,94,73,41,29.93,29.83,12,6,17,0.00
2014-4-12,67.0,56.9,48.6,51.6,49.6,45.0,93,78,55,29.97,29.87,10,4,14,0.00
2014-4-13,66.7,55.9,44.8,52.6,48.6,42.8,94,78,59,30.03,29.94,10,3,15,0.00
2014-4-14,78.9,59.7,45.3,55.6,49.5,41.8,94,73,28,30.06,29.96,11,4,14,0.00
2014-4-15,72.3,58.5,45.3,55.8,49.9,42.1,96,75,48,30.00,29.80,13,5,19,0.00
2014-4-16,70.1,57.6,48.1,56.6,51.9,45.7,97,82,61,29.87,29.76,12,4,19,0.00
2014-4-17,69.6,59.2,48.3,57.2,53.5,46.4,96,82,63,29.90,29.82,10,4,14,0.00
2014-4-18,70.2,61.7,53.3,57.6,54.0,49.5,91,77,59,29.93,29.85,10,3,15,0.00
2014-4-19,71.7,60.0,48.5,56.1,51.8,46.5,94,76,57,30.02,29.91,11,4,17,0.00
2014-4-20,73.9,61.2,49.1,58.1,53.1,47.2,94,76,55,30.06,29.98,12,4,17,0.00
2014-4-21,74.1,61.3,48.6,59.3,53.9,46.7,95,78,57,30.03,29.92,12,5,15,0.00
2014-4-22,72.7,60.1,50.8,55.0,52.2,46.8,95,77,48,29.97,29.86,11,3,13,0.00
2014-4-23,74.4,59.8,43.0,51.4,43.6,37.6,91,61,28,29.96,29.86,10,4,15,0.00
2014-4-24,75.3,61.1,44.1,51.7,43.8,37.5,83,57,29,29.98,29.86,10,4,14,0.00
2014-4-25,69.4,57.9,48.2,56.2,50.6,44.4,90,77,56,29.92,29.79,11,5,14,0.01
2014-4-26,69.1,56.7,45.5,50.4,45.5,40.6,88,68,44,29.99,29.76,15,6,21,0.00
2014-4-27,71.7,57.3,44.9,53.3,47.1,42.1,92,72,41,30.01,29.93,10,4,16,0.00
2014-4-28,82.3,63.0,47.0,54.1,48.5,44.5,93,64,27,30.01,29.88,8,4,12,0.00
2014-4-29,93.6,76.9,52.8,47.5,28.2,10.7,73,25,5,30.05,29.94,28,11,33,0.00
2014-4-30,93.0,75.1,50.1,40.9,19.0,-8.0,59,19,2,30.02,29.91,30,12,43,0.00
2014-5-1,97.4,75.9,56.8,38.2,24.0,8.1,44,18,4,30.06,29.92,19,8,27,0.00
2014-5-2,93.3,72.3,55.5,53.0,42.4,33.9,63,37,15,29.96,29.86,11,5,18,0.00
2014-5-3,82.7,66.7,49.7,54.3,46.6,38.3,84,52,25,29.91,29.84,11,5,17,0.00
2014-5-4,73.5,61.0,47.0,54.3,49.6,44.0,93,69,41,29.97,29.88,11,4,15,0.00
2014-5-5,68.9,56.9,45.9,56.0,49.8,43.4,92,78,59,30.00,29.88,11,4,20,0.00
2014-5-6,72.0,60.2,50.5,52.7,45.7,37.5,93,63,33,29.89,29.75,16,5,28,0.00
2014-5-7,66.6,56.3,44.5,51.9,47.0,41.5,92,72,53,30.00,29.84,12,4,18,0.00
2014-5-8,68.8,57.9,45.9,51.9,48.0,42.9,91,71,51,30.05,29.98,10,4,19,0.00
2014-5-9,72.9,60.2,46.9,56.8,50.9,44.2,91,73,51,30.07,29.91,12,4,18,0.00
2014-5-10,74.3,61.9,49.7,56.6,50.7,47.4,94,69,43,29.95,29.75,11,4,18,0.00
2014-5-11,81.2,65.0,46.2,49.8,39.1,26.9,87,48,15,29.97,29.85,13,5,17,0.00
2014-5-12,91.5,71.5,51.7,46.3,30.7,14.6,72,28,7,30.02,29.92,18,6,22,0.00
2014-5-13,95.3,77.4,57.9,38.9,27.3,9.5,43,20,5,30.08,29.98,27,12,35,0.00
2014-5-14,97.1,64.1,55.1,43.1,36.3,14.3,49,38,5,30.05,29.94,29,2,29,0.00
2014-5-15,100.5,79.9,60.2,43.1,33.8,20.3,49,22,6,30.00,29.91,13,7,16,0.00
2014-5-16,91.0,75.3,58.8,55.4,44.2,33.1,78,37,16,29.94,29.83,11,6,17,0.00
2014-5-17,78.3,65.0,50.6,56.8,52.2,45.9,89,66,40,29.89,29.80,12,5,16,0.00
2014-5-18,73.7,62.3,49.7,57.5,53.3,47.1,94,74,52,29.88,29.80,12,4,16,0.00
2014-5-19,71.2,61.2,50.6,57.8,52.7,48.3,93,75,55,29.93,29.86,13,5,19,0.00
2014-5-20,71.0,59.8,48.1,53.6,49.6,45.9,93,71,43,29.97,29.90,13,4,19,0.00
2014-5-21,70.0,59.8,48.4,55.2,51.1,45.4,91,74,55,29.98,29.91,11,4,15,0.00
2014-5-22,66.2,58.8,49.6,58.4,53.7,47.6,94,83,68,30.01,29.92,8,3,11,0.08
2014-5-23,70.3,60.2,49.6,57.6,54.0,48.2,96,81,63,30.02,29.95,11,4,15,0.00
2014-5-24,70.6,61.9,56.0,59.0,55.8,53.1,92,81,66,30.01,29.91,8,3,12,0.00
2014-5-25,72.9,65.0,56.4,60.2,57.3,52.9,89,77,61,29.97,29.85,11,4,17,0.00
2014-5-26,75.9,63.8,54.2,62.1,57.9,51.9,94,82,62,29.98,29.89,12,4,16,0.00
2014-5-27,75.4,64.1,57.2,62.7,58.9,54.6,97,84,64,29.97,29.88,12,5,17,0.00
2014-5-28,74.8,64.5,54.3,62.6,58.6,52.1,96,82,63,29.92,29.80,12,5,16,0.00
2014-5-29,76.0,65.2,55.8,61.5,58.4,52.8,94,80,59,29.91,29.85,10,4,14,0.00
2014-5-30,77.3,64.5,51.9,61.3,55.5,49.8,95,75,50,29.88,29.81,11,4,17,0.00
2014-5-31,73.7,62.5,49.9,60.0,54.2,48.0,94,76,54,29.90,29.83,12,4,16,0.00
2014-6-1,75.4,61.9,48.3,59.1,53.6,46.4,95,76,46,29.88,29.80,13,4,19,0.00
2014-6-2,70.5,60.1,49.1,58.5,53.7,46.8,97,81,59,29.89,29.83,13,4,17,0.01
2014-6-3,74.8,61.9,46.3,56.5,51.7,44.3,94,72,45,29.91,29.80,12,4,18,0.00
2014-6-4,75.0,60.5,45.7,57.3,52.1,43.8,94,76,44,29.87,29.77,12,4,16,0.00
2014-6-5,72.7,61.6,51.4,59.3,55.4,48.9,97,81,59,29.86,29.77,13,5,19,0.00
2014-6-6,70.6,61.4,53.9,59.0,55.8,51.6,95,83,64,29.85,29.79,12,5,17,0.00
2014-6-7,69.7,61.3,54.7,59.1,56.0,51.8,93,83,68,29.85,29.76,11,4,16,0.00
2014-6-8,72.9,61.4,50.4,60.6,56.1,48.6,97,84,64,29.83,29.74,11,5,16,0.00
2014-6-9,74.3,62.6,56.1,61.5,57.9,55.2,97,86,63,29.81,29.71,13,5,18,0.00
2014-6-10,72.3,64.3,59.6,62.9,59.2,57.3,93,84,71,29.88,29.76,11,4,14,0.00
2014-6-11,63.2,62.4,61.8,59.2,58.9,58.7,90,89,86,29.88,29.85,3,2,6,0.00
2014-6-12,71.2,62.2,52.9,60.1,56.4,50.9,95,82,64,29.95,29.90,14,4,15,0.00
2014-6-13,71.3,63.0,54.6,59.5,56.7,51.6,90,81,64,29.94,29.86,20,4,20,0.00
2014-6-14,73.2,61.6,50.2,59.8,55.2,48.1,95,81,61,29.89,29.79,21,5,21,0.00
2014-6-15,73.5,62.7,54.3,59.7,56.0,51.3,95,80,60,29.87,29.81,21,5,21,0.00
2014-6-16,72.6,62.0,50.8,58.0,54.1,48.6,95,77,56,29.92,29.84,18,4,20,0.00
2014-6-17,73.3,61.7,49.4,58.0,53.1,47.3,95,75,53,29.93,29.86,17,4,17,0.00
2014-6-18,73.8,62.2,48.6,58.6,53.8,46.8,95,76,57,29.94,29.87,19,4,19,0.00
2014-6-19,78.6,65.3,50.2,60.2,55.8,48.3,95,74,45,29.95,29.87,19,6,19,0.00
2014-6-20,79.8,65.9,53.0,62.1,56.8,51.3,95,74,49,29.92,29.83,21,5,21,0.00
2014-6-21,77.3,65.5,53.3,63.8,58.1,50.4,96,78,60,29.88,29.82,21,5,21,0.00
2014-6-22,76.1,64.6,55.3,62.2,58.0,52.6,95,80,62,29.92,29.84,20,4,20,0.00
2014-6-23,75.5,63.2,51.8,62.1,56.9,49.5,95,81,61,29.94,29.87,20,4,20,0.00
2014-6-24,74.6,64.4,52.4,62.4,57.7,50.5,96,80,65,29.96,29.86,20,4,20,0.00
2014-6-25,75.8,66.3,56.0,62.8,59.4,53.2,94,79,59,29.91,29.82,18,4,18,0.00
2014-6-26,76.0,66.0,55.0,62.5,58.4,52.8,96,78,60,29.90,29.81,23,4,23,0.00
2014-6-27,78.0,67.7,55.9,63.5,59.2,53.9,94,76,57,29.87,29.79,21,4,21,0.00
2014-6-28,78.4,68.1,56.3,64.7,60.3,53.4,94,77,61,29.85,29.79,19,4,19,0.00
2014-6-29,78.7,68.6,59.6,66.1,62.3,56.7,94,81,64,29.88,29.80,20,5,20,0.00
2014-6-30,78.2,67.8,58.8,66.1,62.3,56.5,95,83,64,29.89,29.81,15,5,21,0.00
2014-7-1,75.8,67.3,63.5,65.6,62.7,60.6,93,86,69,29.89,29.79,18,4,18,0.00
2014-7-2,77.1,67.6,60.1,65.3,62.1,57.4,94,83,66,29.90,29.82,20,4,20,0.00
2014-7-3,80.2,67.7,56.7,65.5,61.2,54.7,96,81,59,29.93,29.82,19,5,19,0.00
2014-7-4,80.5,68.6,54.9,67.0,61.9,52.6,98,81,62,30.00,29.88,22,5,22,0.00
2014-7-5,82.8,70.9,59.0,65.6,61.4,51.8,97,75,39,30.02,29.94,19,5,19,0.00
2014-7-6,83.4,68.6,57.8,66.6,60.6,55.1,95,78,39,30.01,29.87,19,4,19,0.00
2014-7-7,80.9,69.5,57.4,66.9,61.2,54.9,95,77,50,29.91,29.82,20,4,20,0.00
2014-7-8,78.5,67.0,57.0,65.6,61.3,54.8,97,83,60,29.95,29.84,20,5,20,0.00
2014-7-9,77.8,66.9,61.0,64.9,61.3,58.4,95,83,63,29.95,29.85,13,5,17,0.00
2014-7-10,76.3,67.2,60.3,64.3,61.4,57.0,94,82,64,29.98,29.87,11,4,17,0.00
2014-7-11,76.8,67.3,58.8,63.6,60.7,56.3,95,80,62,29.99,29.92,11,4,16,0.00
2014-7-12,79.0,67.8,55.6,63.6,59.9,53.6,95,77,54,29.98,29.89,11,4,15,0.00
2014-7-13,82.5,70.3,58.9,65.7,61.4,56.6,94,75,51,29.92,29.81,12,5,17,0.00
2014-7-14,81.2,70.5,64.4,68.0,64.8,61.1,91,83,64,29.99,29.87,11,4,14,0.00
2014-7-15,78.4,69.9,63.8,67.7,64.2,61.7,95,83,69,30.02,29.95,12,5,16,0.00
2014-7-16,76.6,68.3,60.6,65.1,62.3,57.0,93,82,65,30.05,29.94,10,3,13,0.00
2014-7-17,76.7,67.2,55.9,62.5,58.6,53.6,96,75,57,30.04,29.94,11,4,15,0.00
2014-7-18,76.4,66.0,54.9,62.8,58.5,52.3,94,78,59,30.02,29.92,11,4,14,0.00
2014-7-19,77.8,66.2,56.6,64.2,60.3,54.6,95,82,62,29.97,29.89,9,3,12,0.00
2014-7-20,77.9,69.3,60.8,64.3,61.2,57.9,92,76,60,29.99,29.91,10,4,16,0.00
2014-7-21,78.6,68.5,57.0,64.2,60.0,54.5,94,76,56,30.06,29.96,12,4,17,0.00
2014-7-22,82.6,69.5,57.3,65.2,59.9,55.1,94,74,49,30.04,29.96,11,4,16,0.00
2014-7-23,85.6,71.2,56.7,64.4,60.0,54.1,94,70,41,30.00,29.85,12,4,16,0.00
2014-7-24,89.9,72.3,56.6,65.3,60.2,53.9,94,69,37,29.87,29.71,12,4,16,0.00
2014-7-25,82.3,69.3,58.0,67.4,62.1,55.4,95,79,59,29.91,29.79,12,5,15,0.00
2014-7-26,79.1,68.6,59.1,66.6,62.7,57.4,97,83,63,29.96,29.88,11,5,15,0.00
2014-7-27,83.6,70.7,61.4,66.5,61.7,37.5,95,77,21,29.99,29.89,12,4,20,0.00
2014-7-28,86.3,70.9,60.7,65.6,62.0,56.8,95,76,39,30.05,29.96,14,5,17,0.00
2014-7-29,82.9,70.8,59.7,64.3,60.7,56.7,94,73,42,30.02,29.90,12,4,17,0.00
2014-7-30,82.3,71.4,62.2,64.4,62.3,59.5,93,75,53,29.95,29.87,11,4,16,0.00
2014-7-31,82.0,69.5,59.8,65.6,61.7,57.7,95,78,51,29.92,29.83,12,4,17,0.00
2014-8-1,78.8,67.9,59.7,66.3,62.2,58.1,96,83,65,29.91,29.83,12,4,16,0.00
2014-8-2,78.7,68.9,60.4,67.6,63.6,58.3,96,84,68,29.94,29.85,11,3,19,0.00
2014-8-3,82.9,73.4,66.3,72.3,66.3,61.9,95,80,53,29.93,29.85,8,3,9,0.04
2014-8-4,78.2,68.5,58.4,65.4,61.2,56.7,96,79,57,29.98,29.91,11,4,16,0.00
2014-8-5,77.5,66.2,58.2,61.6,58.8,55.6,95,79,50,30.03,29.96,12,4,15,0.00
2014-8-6,74.4,65.4,57.1,61.7,59.2,54.8,95,81,61,30.05,29.93,11,4,14,0.00
2014-8-7,76.5,66.3,56.4,62.8,59.6,54.1,95,80,60,29.98,29.87,10,4,14,0.00
2014-8-8,77.8,66.1,55.6,64.6,60.3,53.6,96,83,63,29.93,29.85,10,4,15,0.00
2014-8-9,77.7,67.2,62.1,65.8,62.2,59.6,94,85,66,29.96,29.89,12,5,16,0.00
2014-8-10,78.7,68.4,60.4,66.8,62.6,57.8,95,83,66,29.98,29.88,13,5,16,0.00
2014-8-11,79.4,67.5,56.1,66.2,60.6,54.3,96,80,60,29.94,29.88,13,5,17,0.00
2014-8-12,78.2,66.9,57.6,64.3,59.9,55.9,95,80,57,29.96,29.86,11,4,16,0.00
2014-8-13,76.8,66.9,57.0,64.9,60.7,54.6,95,82,65,29.98,29.89,10,4,15,0.00
2014-8-14,78.9,67.0,57.6,65.9,60.9,55.3,95,82,61,29.96,29.88,11,4,16,0.00
2014-8-15,60.4,59.5,58.2,58.7,57.8,57.1,96,94,93,29.96,29.93,3,1,4,0.00
2014-8-16,76.6,66.4,60.9,61.1,60.0,57.9,90,81,58,29.93,29.89,9,4,0,0.00
2014-8-17,79.8,67.0,54.7,63.4,58.8,52.5,94,77,52,29.96,29.82,11,4,17,0.00
2014-8-18,80.5,66.9,54.6,63.8,58.7,52.9,96,77,50,29.87,29.76,13,4,18,0.00
2014-8-19,76.8,66.0,54.6,65.7,60.1,52.6,95,82,66,29.88,29.81,10,4,16,0.00
2014-8-20,77.0,69.3,60.0,64.9,61.1,56.1,90,76,60,29.92,29.85,10,4,15,0.00
2014-8-21,77.7,66.6,55.5,63.6,59.2,53.2,94,78,60,29.94,29.87,11,4,16,0.00
2014-8-22,77.8,66.7,58.0,66.0,61.3,55.8,95,84,66,29.96,29.88,11,5,17,0.00
2014-8-23,77.4,68.1,60.7,64.3,61.6,57.8,94,81,60,29.96,29.84,11,4,15,0.00
2014-8-24,77.4,66.1,57.3,63.5,59.7,54.4,96,81,55,29.92,29.81,11,4,18,0.00
2014-8-25,74.8,63.3,52.6,62.9,56.4,50.8,95,79,63,29.93,29.85,9,4,14,0.00
2014-8-26,79.6,65.1,51.0,62.1,56.0,48.9,95,75,50,29.97,29.91,11,4,16,0.00
2014-8-27,88.5,71.7,56.4,58.8,54.0,48.8,91,58,28,30.02,29.95,10,4,14,0.00
2014-8-28,84.8,70.8,59.5,64.5,58.0,52.2,87,66,40,30.01,29.85,21,5,21,0.00
2014-8-29,82.5,67.1,52.6,62.5,57.7,50.3,94,75,40,29.88,29.77,18,4,18,0.00
2014-8-30,82.4,68.9,54.2,66.8,59.9,51.9,96,75,52,29.82,29.71,17,4,17,0.00
2014-8-31,83.7,70.2,57.0,67.1,61.8,54.4,93,76,53,29.82,29.72,17,4,17,0.00
2014-9-1,81.3,69.2,58.9,68.2,62.4,57.1,96,80,60,29.82,29.75,17,4,17,0.00
2014-9-2,79.8,68.8,56.8,66.5,62.2,54.6,97,81,60,29.86,29.74,17,4,20,0.00
2014-9-3,77.1,67.2,57.7,66.1,62.0,55.7,96,84,66,29.80,29.69,17,4,18,0.00
2014-9-4,77.3,66.9,57.6,64.8,61.3,54.3,94,83,63,29.80,29.72,17,3,19,0.00
2014-9-5,77.0,64.3,53.5,64.4,58.9,51.3,98,84,63,29.89,29.79,19,4,19,0.00
2014-9-6,82.3,66.4,52.5,65.2,58.8,50.9,97,79,49,29.92,29.79,18,4,18,0.01
2014-9-7,89.0,70.7,56.0,63.8,59.2,53.1,94,71,34,29.82,29.71,17,4,17,0.00
2014-9-8,83.8,71.9,62.3,67.4,63.5,57.9,92,76,48,29.86,29.78,16,3,18,0.00
2014-9-9,83.3,68.6,53.5,61.8,56.3,50.1,92,68,36,29.92,29.82,18,4,18,0.00
2014-9-10,83.9,67.7,51.9,63.8,54.7,45.0,91,67,28,29.90,29.78,17,4,19,0.00
2014-9-11,84.4,69.8,57.1,63.9,59.0,52.9,92,72,43,29.86,29.76,16,4,19,0.00
2014-9-12,83.0,69.2,57.1,65.5,61.0,55.1,95,77,51,29.84,29.73,19,4,20,0.00
2014-9-13,87.3,69.7,56.8,67.5,62.1,55.1,96,79,47,29.79,29.69,22,4,22,0.00
2014-9-14,92.1,73.8,62.5,69.3,63.6,60.1,94,74,36,29.75,29.67,19,4,20,0.00
2014-9-15,90.6,74.2,61.6,68.4,63.5,58.9,94,72,42,29.80,29.71,17,4,17,0.00
2014-9-16,95.0,75.7,62.9,66.5,62.9,59.4,91,68,32,29.77,29.64,16,4,18,0.00
2014-9-17,86.6,73.7,62.5,65.1,61.1,57.3,91,68,39,29.76,29.67,15,4,17,0.00
2014-9-18,80.3,67.4,54.9,65.2,60.3,52.6,95,79,58,29.85,29.76,18,4,20,0.00
2014-9-19,77.7,68.4,59.4,65.6,61.7,56.3,95,80,63,29.89,29.81,18,3,18,0.00
2014-9-20,79.0,66.1,55.9,65.9,60.2,54.1,96,82,63,29.95,29.86,15,3,18,0.00
2014-9-21,78.0,65.6,58.0,64.5,60.3,54.9,96,84,62,30.00,29.90,17,3,18,0.00
2014-9-22,78.8,65.9,54.9,65.4,59.3,53.5,97,81,59,29.97,29.88,18,4,18,0.00
2014-9-23,80.3,65.4,52.5,64.6,58.5,50.6,96,80,56,29.97,29.87,19,4,19,0.01
2014-9-24,85.5,66.8,52.2,62.0,54.8,46.0,94,69,35,29.92,29.82,17,4,17,0.00
2014-9-25,84.3,68.5,54.5,64.9,58.0,51.6,93,73,37,29.93,29.83,16,4,17,0.00
2014-9-26,78.0,66.1,54.4,65.7,58.9,52.6,97,79,55,29.88,29.77,16,3,18,0.01
2014-9-27,75.5,63.9,52.5,61.7,56.4,50.8,96,78,50,29.89,29.74,17,3,19,0.00
2014-9-28,74.5,63.2,52.8,61.4,55.7,50.8,94,78,59,29.92,29.82,15,4,17,0.00
2014-9-29,81.3,65.3,52.8,60.5,54.8,50.3,94,72,40,29.94,29.82,17,3,17,0.00
2014-9-30,82.2,67.6,56.8,60.7,53.9,47.4,89,64,39,29.86,29.72,14,5,19,0.00
2014-10-1,79.0,64.6,50.4,65.0,56.7,47.9,91,77,51,29.86,29.74,16,3,18,0.00
2014-10-2,96.6,74.6,49.7,55.2,36.9,14.2,95,39,5,29.97,29.85,24,8,31,0.00
2014-10-3,99.2,74.1,52.8,50.3,33.7,10.0,61,29,4,30.01,29.92,22,5,22,0.00
2014-10-4,94.7,73.3,56.5,55.2,41.9,32.2,60,37,13,29.96,29.82,20,4,20,0.00
2014-10-5,90.6,71.8,56.1,56.4,43.9,33.2,66,39,15,29.90,29.81,16,4,16,0.00
2014-10-6,86.6,68.1,52.1,61.7,49.4,39.9,77,54,23,29.90,29.80,17,4,17,0.00
2014-10-7,87.8,66.3,50.8,61.5,51.7,42.7,91,63,25,29.90,29.79,20,3,20,0.00
2014-10-8,81.6,64.6,49.2,61.3,52.3,42.8,88,67,36,29.86,29.77,17,4,17,0.00
2014-10-9,77.2,64.8,51.5,63.7,57.9,49.8,95,80,58,29.94,29.86,16,4,16,0.00
2014-10-10,76.4,65.8,57.2,63.9,60.1,54.6,95,83,63,29.99,29.89,17,4,17,0.00
2014-10-11,77.8,63.7,51.0,65.2,58.3,49.6,96,84,59,29.99,29.88,19,4,19,0.00
2014-10-12,76.9,64.2,53.5,65.5,58.8,51.7,96,83,63,29.92,29.83,17,3,17,0.01
2014-10-13,77.6,65.1,56.6,65.8,60.6,54.6,98,86,66,30.00,29.92,15,4,18,0.00
2014-10-14,74.7,64.7,56.6,62.2,58.9,54.6,96,82,64,29.99,29.89,16,3,16,0.00
2014-10-15,74.5,65.5,58.3,61.7,58.5,54.1,90,79,59,30.00,29.92,17,3,17,0.00
2014-10-16,76.8,63.6,53.0,61.7,56.7,51.3,95,80,53,30.01,29.89,18,4,18,0.00
2014-10-17,74.4,62.3,52.4,61.0,55.5,50.4,95,80,56,29.98,29.90,17,4,17,0.01
2014-10-18,77.9,63.1,52.1,59.7,54.5,49.8,94,76,47,29.94,29.81,16,4,16,0.00
2014-10-19,76.0,63.1,51.6,63.3,56.7,48.8,94,81,61,29.91,29.81,16,4,16,0.00
2014-10-20,75.0,64.4,56.7,63.8,59.3,54.6,98,85,64,29.93,29.84,16,4,16,0.00
2014-10-21,76.8,63.1,49.7,58.5,53.8,48.0,97,75,48,29.92,29.81,15,3,15,0.00
2014-10-22,82.4,64.8,53.6,58.2,50.8,42.6,87,64,27,29.94,29.85,17,4,17,0.00
2014-10-23,83.5,66.3,55.1,62.5,51.7,43.3,87,62,33,29.99,29.88,16,4,16,0.00
2014-10-24,83.3,65.2,52.5,61.3,49.6,40.6,84,60,29,30.00,29.90,15,4,15,0.00
2014-10-25,78.1,61.1,47.2,62.3,51.6,43.3,92,73,39,30.05,29.96,16,3,16,0.00
2014-10-26,76.0,62.2,48.8,58.9,51.4,45.7,93,70,42,30.00,29.85,16,3,16,0.00
2014-10-27,76.0,61.3,48.3,54.5,46.4,42.3,81,60,34,29.94,29.85,16,4,16,0.00
2014-10-28,76.2,61.5,50.1,58.7,50.3,42.4,89,69,39,30.02,29.94,15,4,15,0.00
2014-10-29,80.9,63.2,49.4,59.5,49.4,39.7,90,65,26,30.03,29.94,18,4,18,0.00
2014-10-30,77.3,61.8,50.2,63.7,50.1,38.3,90,68,28,29.99,29.91,17,4,17,0.00
2014-10-31,68.3,59.7,49.8,59.7,53.1,47.1,93,79,64,29.97,29.78,13,3,13,0.62
2014-11-1,65.2,56.6,49.5,57.2,52.1,47.6,97,86,61,29.98,29.79,18,3,18,0.15
2014-11-2,71.1,55.5,44.1,52.8,47.1,42.6,97,77,42,30.07,29.97,15,3,15,0.01
2014-11-3,76.4,58.4,45.6,47.3,41.3,31.6,84,58,21,30.16,30.07,18,5,18,0.00
2014-11-4,82.3,56.0,40.2,48.3,38.8,21.4,91,60,12,30.20,30.08,8,2,13,0.00
2014-11-5,88.4,65.9,46.8,47.9,40.1,29.8,77,47,13,30.11,29.99,18,5,26,0.00
2014-11-6,89.8,69.1,52.8,49.3,42.0,32.6,76,41,15,30.15,30.05,10,4,14,0.00
2014-11-7,89.0,67.9,56.6,51.5,43.3,37.5,68,44,18,30.10,29.96,10,5,14,0.00
2014-11-8,84.7,64.9,51.5,61.3,48.6,38.9,89,59,24,30.03,29.93,11,3,14,0.00
2014-11-9,74.2,59.4,45.2,60.3,53.3,42.6,93,81,59,29.98,29.79,10,3,13,0.00
2014-11-10,69.8,61.3,54.5,58.1,55.7,51.9,92,82,62,29.88,29.81,9,3,12,0.00
2014-11-11,67.0,61.1,55.6,57.2,55.0,53.3,92,81,70,29.95,29.88,7,2,10,0.00
2014-11-12,70.3,60.3,50.3,56.1,52.8,47.4,91,78,53,30.02,29.92,9,2,13,0.00
2014-11-13,68.4,59.4,48.3,59.7,53.8,46.4,95,83,61,30.08,29.97,8,3,12,0.01
2014-11-14,72.3,61.8,52.8,61.8,57.2,51.1,96,86,64,30.02,29.94,9,3,13,0.00
2014-11-15,72.3,58.9,50.7,58.5,52.6,48.7,95,81,57,30.08,29.97,9,4,13,0.01
2014-11-16,72.5,60.7,44.7,49.2,18.8,-11.4,93,33,5,30.19,30.02,22,11,31,0.00
2014-11-17,76.0,67.6,52.9,29.1,5.0,-11.4,37,10,4,30.14,30.04,22,13,34,0.00
2014-11-18,78.2,65.7,49.8,37.7,19.9,7.8,55,22,7,30.13,30.05,20,9,27,0.00
2014-11-19,71.5,58.2,49.1,56.8,39.5,25.1,89,54,25,30.14,30.05,8,4,13,0.00
2014-11-20,67.7,56.7,44.8,57.6,50.1,39.3,92,79,53,30.11,29.95,11,5,13,0.00
2014-11-21,73.2,58.6,46.4,55.5,48.4,42.0,97,72,39,30.05,29.92,9,3,13,0.01
2014-11-22,72.7,58.7,47.4,57.1,46.0,39.1,85,64,40,30.11,29.96,10,4,14,0.00
2014-11-23,78.2,60.5,46.2,50.9,37.7,23.8,92,51,14,30.17,30.03,18,5,21,0.00
2014-11-24,77.8,62.7,48.0,32.7,23.5,13.8,45,26,9,30.30,30.14,20,8,25,0.00
2014-11-25,83.9,62.1,47.7,32.3,23.1,12.6,52,25,9,30.39,30.24,13,5,16,0.00
2014-11-26,85.2,61.9,47.9,50.7,35.8,22.9,73,42,11,30.26,30.11,11,5,15,0.00
2014-11-27,91.9,66.1,53.1,47.9,34.6,26.7,61,35,11,30.12,29.98,14,7,19,0.00
2014-11-28,80.6,60.1,48.6,48.7,37.2,27.8,72,45,17,29.99,29.86,12,6,16,0.00
2014-11-29,73.5,56.3,45.4,57.2,43.8,32.5,93,65,31,29.92,29.82,11,5,14,0.00
2014-11-30,68.6,58.5,49.7,58.8,53.9,47.5,95,85,69,30.09,29.86,9,4,12,0.01
2014-12-1,69.3,60.8,54.3,58.6,54.9,52.0,94,82,61,30.15,29.98,12,5,15,0.00
2014-12-2,67.6,59.0,56.2,56.1,54.2,49.3,96,85,53,29.98,29.85,15,9,21,1.15
2014-12-3,65.9,60.9,56.7,63.7,59.6,55.6,98,96,91,29.98,29.88,12,3,14,0.15
2014-12-4,71.8,59.4,50.7,61.2,56.0,50.1,98,89,65,30.06,29.92,8,3,11,0.00
2014-12-5,66.8,58.7,53.6,60.1,55.6,52.5,97,90,73,30.14,30.04,7,2,10,0.01
2014-12-6,72.8,58.9,50.6,58.0,53.1,48.8,97,83,54,30.21,30.12,11,4,13,0.01
2014-12-7,76.0,60.6,49.7,59.2,53.0,47.9,95,78,44,30.19,30.08,14,5,17,0.00
2014-12-8,80.6,62.2,52.3,57.9,50.9,46.0,89,69,35,30.11,30.00,12,5,16,0.00
2014-12-9,80.3,61.4,50.5,53.9,48.3,41.3,88,65,26,30.11,29.97,12,4,18,0.00
2014-12-10,70.2,58.3,49.7,58.5,49.7,42.8,94,74,47,30.02,29.92,8,3,13,0.00
2014-12-11,66.4,58.3,50.0,58.7,53.3,48.1,95,84,70,29.98,29.81,12,4,16,0.07
2014-12-12,62.6,54.6,46.7,57.6,51.6,45.0,98,90,72,30.07,29.72,17,5,25,1.64
2014-12-13,67.9,52.1,42.3,50.1,44.4,40.7,97,78,38,30.15,30.06,9,4,11,0.01
2014-12-14,66.6,52.2,44.1,52.8,44.1,38.7,92,75,47,30.14,30.03,11,6,16,0.00
2014-12-15,64.9,54.1,45.1,52.4,46.5,41.1,94,77,46,30.09,29.93,12,5,14,0.03
2014-12-16,61.2,55.6,52.1,53.9,51.7,49.9,96,87,73,30.01,29.93,11,4,15,0.11
2014-12-17,64.0,53.2,45.9,53.3,48.6,44.1,98,85,54,30.11,29.93,8,2,13,0.36
2014-12-18,62.3,51.2,45.1,52.2,46.7,42.8,95,85,66,30.22,30.10,11,4,13,0.01
2014-12-19,64.3,52.8,43.9,53.8,47.3,41.4,95,83,56,30.24,30.13,11,4,15,0.00
2014-12-20,66.1,53.6,45.2,56.5,49.8,43.4,95,87,65,30.20,30.09,10,4,12,0.01
2014-12-21,68.0,54.0,47.0,58.0,51.1,45.9,97,91,66,30.15,30.02,6,2,8,0.00
2014-12-22,80.8,59.5,44.6,54.7,49.2,43.3,97,73,33,30.05,29.92,10,3,12,0.01
2014-12-23,83.2,62.7,48.3,52.3,45.1,37.7,87,59,20,30.08,29.98,17,5,23,0.00
2014-12-24,73.3,58.9,48.5,53.1,46.0,42.0,93,65,34,30.08,29.79,11,4,14,0.00
2014-12-25,66.0,50.2,36.7,47.2,37.4,26.9,96,67,28,29.98,29.78,10,3,13,0.01
2014-12-26,61.4,46.9,33.7,31.0,26.3,18.2,83,50,19,30.21,29.97,20,7,25,0.00
2014-12-27,63.9,51.8,39.1,28.3,21.9,16.7,62,33,17,30.33,30.19,26,12,38,0.00
2014-12-28,65.2,47.0,36.6,42.8,32.3,25.9,87,60,25,30.31,30.14,13,6,15,0.00
2014-12-29,64.4,47.4,35.9,47.6,39.2,31.5,93,75,46,30.16,30.02,12,6,14,0.00
2014-12-30,61.9,50.3,41.0,46.4,36.3,15.4,94,64,25,30.04,29.88,27,7,34,0.00
2014-12-31,58.3,46.9,34.9,31.9,21.4,13.1,74,39,19,30.07,29.97,20,9,32,0.00
2015-1-1,60.9,43.0,31.9,39.5,29.2,20.3,87,60,34,30.16,30.05,12,6,16,0.00
2015-1-2,61.0,44.4,32.2,45.1,34.5,25.0,91,70,38,30.17,30.04,11,6,15,0.00